Location: Bonneuil
(46.1010°N, 2.9693°E)
Time: 07:44:33
(UTC+00:00)

Daily predictions for brighter satellites

Satellite Brightness Start Highest point End
(mag) Time Altitude Azimuth Time Altitude Azimuth Time Altitude Azimuth
Cosmos 1602 Rocket 4.5 18:49:34 10° NNW 18:53:52 54° W 18:58:08 10° S
IRIDIUM 114 4.3 18:50:04 10° N 18:55:17 68° E 19:00:28 10° SSE
Cosmos 2058 Rocket 4.0 18:55:13 10° SSE 18:59:03 28° E 19:02:53 10° NNE
Cosmos 1726 Rocket 3.9 18:57:25 10° SSE 19:01:36 44° E 19:05:51 10° NNE
SL-08 RB Rocket 4.4 18:58:22 10° SE 19:02:35 37° ENE 19:06:50 10° N
STARLINK-1228 3.2 18:59:42 10° NW 19:02:35 51° NNE 19:05:28 10° ESE
Cosmos 1461 3.4 18:58:27 10° NNW 19:02:55 56° NE 19:07:30 10° SE
IRIDIUM 103 4.3 18:59:14 10° N 19:04:29 82° E 19:09:42 10° S
Cosmos 921 Rocket 3.8 19:01:49 10° N 19:05:36 32° ENE 19:09:23 10° SE
SL-4 R/B 2.0 19:02:30 10° WSW 19:05:52 61° NNW 19:09:17 10° ENE
Cosmos 1726 2.2 19:02:32 10° S 19:06:15 83° W 19:10:00 10° N
Cosmos 1703 3.4 19:02:20 10° N 19:06:17 58° E 19:10:11 10° SSE
Meteor 2-10 4.3 19:02:38 10° S 19:08:09 89° W 19:13:52 10° N
CZ-4C R/B 4.5 19:03:41 10° NNW 19:08:24 20° NNE 19:13:40 10° ENE
Cosmos 1437 3.2 19:05:31 10° NNW 19:08:30 59° W 19:11:28 10° S
Cosmos 2184 Rocket 4.0 19:02:30 10° N 19:08:50 82° E 19:15:02 10° S
ADEOS Rocket 4.0 19:03:25 10° N 19:09:31 52° WNW 19:15:03 10° SW
Cosmos 407 Rocket 3.6 19:04:33 10° S 19:09:33 54° ESE 19:14:33 10° NNE
Cosmos 1825 Rocket 3.5 19:05:14 10° N 19:09:39 86° E 19:13:59 10° S
Cosmos 1908 3.4 19:06:16 10° S 19:10:01 52° E 19:13:50 10° NNE
Cosmos 1340 Rocket 3.4 19:06:48 10° SSE 19:10:30 35° E 19:14:11 10° NNE
FREGAT/IRIS 2.3 19:08:35 10° SSE 19:11:16 61° ENE 19:13:59 10° N
STARLINK-1201 3.7 19:08:27 10° NW 19:11:37 44° NNE 19:14:33 11° E
Cosmos 1656 Rocket 3.9 19:06:44 10° NNW 19:12:23 75° WSW 19:17:55 10° SSE
Cosmos 2228 3.0 19:08:12 10° S 19:12:28 68° E 19:16:49 10° NNE
Cosmos 1328 3.8 19:08:59 10° N 19:13:00 67° E 19:16:58 10° SSE
Cosmos 1943 3.9 19:10:53 10° SW 19:16:29 61° WNW 19:22:09 10° NNE
MOS 1 4.3 19:12:56 10° SSE 19:18:35 77° ENE 19:24:16 10° NNW
Resurs 01 Rocket 2.8 19:17:43 12° ESE 19:20:59 25° ENE 19:24:36 10° N
STARLINK-52 3.0 19:19:01 10° SW 19:22:10 58° SE 19:25:20 10° ENE
MOS 1 Rocket 4.3 19:18:19 10° NNE 19:23:10 32° E 19:27:59 10° SSE
Cosmos 1758 Rocket 4.3 19:20:10 10° NNW 19:24:24 55° W 19:28:36 10° S
CZ-2C R/B 3.4 19:19:58 10° NE 19:24:29 29° E 19:29:01 10° SSE
Nadezhda 1 Rocket 4.0 19:18:26 10° S 19:24:47 71° E 19:31:05 10° NNE
BREEZE M DEB (TANK) 3.4 19:22:30 10° S 19:25:10 28° SE 19:30:49 10° ENE
Cosmos 1023 Rocket 4.5 19:23:24 10° S 19:28:29 60° ESE 19:33:32 10° NNE
SPOT 3 Rocket 3.7 19:23:29 10° SE 19:28:33 55° ENE 19:33:38 10° N
SL-24 R/B - RUBIN 2 4.3 19:23:16 10° SSW 19:28:51 82° SE 19:35:12 10° NE
ARGOS 3.2 19:24:35 10° SSE 19:29:59 89° WSW 19:35:24 10° NNW
STARLINK-1243 4.5 19:26:08 10° NW 19:30:06 42° NNE 19:33:24 14° E
FALCON 9 DEB 3.1 19:27:00 10° SW 19:30:30 71° SE 19:33:58 10° ENE
Cosmos 2154 Rocket 4.0 19:25:28 10° N 19:31:51 80° E 19:38:10 10° SSE
Cosmos 1606 Rocket 3.9 19:27:45 10° SSW 19:32:11 71° W 19:36:40 10° N
Cosmos 1953 Rocket 3.7 19:28:13 10° N 19:32:44 81° W 19:37:13 10° S
GEOS 3 Rocket 4.2 19:28:26 10° SSE 19:33:29 56° SW 19:38:37 10° NW
NOSS 3-4 (A) 4.0 19:27:30 10° NW 19:34:32 76° SW 19:42:16 10° SSE
NOSS 3-4 (C) 4.0 19:27:38 10° NW 19:34:39 77° SW 19:42:23 10° SSE
Cosmos 1954 Rocket 4.3 19:29:51 10° S 19:34:48 44° ESE 19:39:44 10° NNE
STARLINK-1236 4.4 19:31:07 10° NW 19:35:07 44° NNE 19:38:11 16° E
USA 186 2.4 19:32:18 10° S 19:35:33 57° W 19:38:37 10° NNW
STARLINK-67 3.1 19:35:38 10° WNW 19:38:06 44° SW 19:39:24 22° SSE
Meteor 1-11 4.3 19:37:09 10° NNW 19:42:55 84° W 19:48:35 10° S
STARLINK-1269 4.2 19:41:04 10° NW 19:45:07 48° NNE 19:47:44 20° E
STARLINK-1200 4.2 19:46:03 10° NW 19:50:07 50° NNE 19:52:31 22° E
STARLINK-1234 3.0 19:51:34 10° WNW 19:54:41 63° SW 19:55:47 34° SE
STARLINK-1192 4.1 19:51:02 10° NW 19:55:06 53° NNE 19:57:18 25° E
STARLINK-1209 3.1 19:52:03 10° WNW 19:55:08 59° SW 19:56:15 34° SSE
STARLINK-1233 2.8 19:52:25 10° WNW 19:55:34 84° SW 19:56:38 38° SE
STARLINK-1212 2.8 19:52:53 10° WNW 19:56:02 84° SSW 19:57:04 39° SE
STARLINK-1105 2.8 19:53:19 10° WNW 19:56:28 83° SSW 19:57:31 39° SE
STARLINK-1206 2.8 19:53:48 10° WNW 19:56:55 82° SW 19:57:55 40° SE
STARLINK-1247 2.8 19:54:16 10° WNW 19:57:23 81° SW 19:58:21 41° SE
SeaSat 1 4.3 19:53:16 10° NNE 19:57:42 34° NW 20:02:07 10° WSW
STARLINK-1227 2.8 19:54:40 10° WNW 19:57:48 81° SW 19:58:47 40° SE
STARLINK-1218 2.8 19:55:10 10° WNW 19:58:17 80° SSW 19:59:13 41° SE
Iridium 4 Rocket 4.0 19:54:59 10° NNE 19:58:31 26° E 19:59:06 25° E
STARLINK-1226 2.8 19:55:36 10° WNW 19:58:44 79° SSW 19:59:40 42° SE
Cosmos 1980 Rocket 4.2 19:56:08 10° N 19:59:06 14° NE 20:02:02 10° ENE
STARLINK-1254 2.8 19:56:01 10° WNW 19:59:10 79° SSW 20:00:06 42° SE
STARLINK-1215 2.8 19:56:31 10° WNW 19:59:38 78° SSW 20:00:32 43° SE
STARLINK-1231 2.8 19:56:58 10° WNW 20:00:05 77° SW 20:00:58 43° SE
STARLINK-1244 4.0 19:56:06 10° NW 20:00:12 56° NNE 20:02:10 28° E
USA 234 3.9 19:55:11 10° ENE 20:00:48 30° SE 20:06:22 10° S
STARLINK-1232 2.8 19:57:52 10° WNW 20:01:00 76° SSW 20:01:50 44° SE
STARLINK-1217 2.8 19:58:19 10° WNW 20:01:27 75° SSW 20:02:16 44° SE
Abrixas rocket 2.1 19:58:36 10° WNW 20:01:31 59° SSW 20:02:07 46° SSE
Cosmos 1892 3.8 19:58:30 10° NNE 20:01:50 26° ENE 20:02:13 26° E
STARLINK-1208 2.9 19:58:44 10° WNW 20:01:53 75° SSW 20:02:43 44° SE
STARLINK-1229 2.8 19:59:13 10° WNW 20:02:20 74° SSW 20:03:07 46° SE
STARLINK-1271 2.9 19:59:40 10° WNW 20:02:47 73° SW 20:03:34 46° SE
STARLINK-1270 2.9 20:00:08 10° WNW 20:03:15 73° SSW 20:04:00 47° SE
H-2A R/B 3.4 19:58:49 10° SSW 20:03:36 38° W 20:08:18 10° NNW
STARLINK-1154 2.9 20:00:35 10° WNW 20:03:41 72° SW 20:04:26 47° SE
ATLAS 5 CENTAUR R/B 2.2 20:00:10 10° SW 20:04:17 57° NW 20:08:57 10° NNE
STARLINK-1197 2.9 20:01:29 10° WNW 20:04:36 71° SSW 20:05:18 48° SSE
STARLINK-1189 2.9 20:01:55 10° WNW 20:05:01 70° SW 20:05:43 48° SSE
STARLINK-1138 3.9 20:00:59 10° NW 20:05:06 59° NNE 20:06:53 31° E
STARLINK-1198 2.9 20:02:23 10° WNW 20:05:30 69° SW 20:06:10 49° SSE
STARLINK-1188 2.9 20:02:49 10° WNW 20:05:56 69° SW 20:06:35 49° SSE
Cosmos 1825 4.4 20:04:28 10° NE 20:05:39 12° ENE 20:05:39 12° ENE
ATLAS 2AS CENTAUR R/B 3.6 19:59:25 10° NW 20:06:32 47° WSW 20:13:00 10° S
STARLINK-1235 3.3 20:03:30 10° WNW 20:06:36 53° SW 20:07:18 41° S
STARLINK-1187 3.1 20:03:54 10° WNW 20:07:02 59° SW 20:07:42 45° SSE
STARLINK-1199 3.0 20:04:46 10° WNW 20:07:54 66° SW 20:08:31 50° SSE
STARLINK-1191 3.0 20:05:13 10° WNW 20:08:20 66° SW 20:08:56 50° SSE
STARLINK-1210 3.0 20:05:40 10° WNW 20:08:48 65° SW 20:09:23 51° SSE
STARLINK-1221 3.0 20:06:08 10° WNW 20:09:15 64° SW 20:09:48 51° SSE
STARLINK-1219 3.0 20:06:34 10° WNW 20:09:42 64° SW 20:10:15 51° SSE
COSMOS 2455 3.0 20:03:45 10° NW 20:09:46 73° WSW 20:13:57 21° SSE
STARLINK-1143 3.8 20:05:57 10° NW 20:10:05 62° NNE 20:11:39 35° E
STARLINK-1222 3.0 20:07:01 10° WNW 20:10:09 63° SW 20:10:40 51° SSE
STARLINK-1211 3.0 20:07:30 10° WNW 20:10:36 62° SW 20:11:07 52° SSE
STARLINK-1214 3.0 20:07:57 10° WNW 20:11:03 62° SW 20:11:33 52° SSE
STARLINK-1245 3.0 20:08:25 10° WNW 20:11:30 61° SW 20:11:57 52° S
Cosmos 1140 Rocket 4.0 20:06:32 10° SSW 20:11:40 61° WNW 20:16:47 10° NNE
STARLINK-1238 3.0 20:08:50 10° WNW 20:11:57 61° SW 20:12:25 52° S
STARLINK-1205 3.0 20:09:46 10° WNW 20:12:51 59° SW 20:13:16 52° S
STARLINK-1204 3.0 20:10:14 10° WNW 20:13:19 59° SW 20:13:42 53° S
ERBS 2.6 20:10:26 10° NW 20:13:45 52° NE 20:14:20 45° ENE
STARLINK-1241 3.7 20:10:59 10° WNW 20:15:06 67° NNE 20:16:28 39° E
STARLINK-29 3.9 20:14:50 10° W 20:17:57 46° NNW 20:19:44 22° NE
STARLINK-1239 3.7 20:15:56 10° WNW 20:20:05 71° NNE 20:21:14 45° E
IGS 5A 4.3 20:20:27 32° ENE 20:20:45 32° ENE 20:24:28 10° N
ATLAS CENTAUR R/B 3.1 20:18:40 10° N 20:21:22 18° NE 20:22:10 17° NE
SAR-Lupe-2 3.8 20:18:01 10° NNE 20:21:14 48° E 20:21:14 48° E
Cosmos 1300 3.0 20:18:09 10° SSW 20:21:57 67° W 20:25:46 10° N
Resurs 1-3 4.1 20:18:54 17° S 20:22:08 58° W 20:26:29 10° NNW
Spot 2 Rocket 3.7 20:22:15 36° SE 20:24:03 55° ENE 20:29:02 10° N
STARLINK-1240 3.6 20:20:55 10° WNW 20:25:04 75° NNE 20:26:01 51° E
Cosmos 1850 Rocket 4.1 20:24:22 29° SSE 20:26:43 51° ESE 20:31:44 10° NNE
Cosmos 841 Rocket 4.4 20:23:40 10° N 20:28:26 33° ENE 20:29:32 30° E
In-Cosmos 22 Rocket 4.2 20:23:57 10° N 20:29:50 81° ENE 20:32:45 31° SSE
STARLINK-1216 3.5 20:25:52 10° WNW 20:30:02 80° NNE 20:30:48 58° ESE
Terra 3.4 20:29:53 20° ENE 20:30:06 20° ENE 20:33:33 10° NNE
Cosmos 2082 Rocket 4.3 20:34:09 11° ENE 20:34:09 11° ENE 20:34:29 10° ENE
SPOT 5 3.9 20:31:40 24° ENE 20:31:40 24° ENE 20:35:03 10° N
Meteor 2-10 Rocket 4.1 20:33:52 36° E 20:33:52 36° E 20:38:47 10° NNE
MetOp-B 4.0 20:32:14 37° SSE 20:34:27 79° ENE 20:39:50 10° NNW
STARLINK-1237 3.5 20:30:50 10° WNW 20:35:00 85° NNE 20:35:33 66° ESE
Cosmos 1833 Rocket 3.9 20:39:02 25° ENE 20:39:02 25° ENE 20:42:08 10° NE
STARLINK-1202 3.4 20:35:50 10° WNW 20:40:00 89° SSW 20:40:21 74° SE
Cosmos 468 Rocket 3.8 20:35:57 10° NNW 20:41:09 83° ENE 20:42:31 50° SSE
Cosmos 192 4.3 20:36:54 10° NNW 20:41:53 80° WSW 20:43:22 46° S
SL-4 R/B 3.1 20:42:45 10° WNW 20:45:51 31° N 20:46:33 29° NNE
ERS-1 Rocket 3.3 20:47:01 44° E 20:47:26 46° ENE 20:52:14 10° N
Cosmos 1408 3.6 20:44:21 10° N 20:46:55 37° NNE 20:46:55 37° NNE
STARLINK-1246 3.5 20:45:47 10° WNW 20:49:54 78° SW 20:49:54 78° SW
RESURS DK-1 2.8 20:46:25 10° NNW 20:50:15 50° NE 20:50:15 50° NE
BREEZE M DEB (TANK) 3.1 20:45:56 10° WSW 20:52:55 70° NNW 20:53:25 59° NNE
Cosmos 1766 Rocket 4.4 20:49:16 10° N 20:52:50 37° NE 20:52:50 37° NE
Cosmos 1570 Rocket 4.1 20:48:30 10° NNW 20:53:49 62° ENE 20:54:32 56° ESE
STARLINK-1224 3.7 20:50:48 10° WNW 20:54:43 70° WSW 20:54:43 70° WSW
Okean 3 Rocket 4.1 20:50:45 10° N 20:54:34 47° NE 20:54:34 47° NE
Meteor 2-12 Rocket 4.3 20:49:17 10° N 20:55:25 90° WSW 20:57:32 44° S
Cosmos 2058 3.3 20:52:48 10° NNW 20:56:52 58° W 20:57:24 53° SW
COSMOS 2406 3.1 20:54:53 40° S 20:56:58 71° ESE 21:02:40 10° NNE
Resurs 01 Rocket 2.9 20:55:17 23° SW 20:57:19 36° W 21:01:24 10° NNW
STARLINK-1203 3.8 20:53:10 10° WNW 20:57:04 63° WSW 20:57:04 63° WSW
CZ-4C R/B 3.5 20:52:07 10° NNW 20:58:45 45° NE 21:01:49 32° E
STARLINK-1225 3.9 20:55:48 10° WNW 20:59:30 62° WSW 20:59:30 62° WSW
Cosmos 2218 Rocket 4.4 20:57:41 10° NNW 21:03:49 61° W 21:07:06 28° SSW
Cosmos 1812 Rocket 4.3 21:02:25 31° SW 21:04:08 50° WNW 21:08:22 10° N
STARLINK-1230 4.1 21:00:46 10° WNW 21:04:16 54° WSW 21:04:16 54° WSW
CZ-2C R/B 3.8 21:00:05 10° N 21:04:53 39° WNW 21:09:41 10° SW
Cosmos 2151 3.3 21:04:06 10° N 21:07:34 58° NNE 21:07:34 58° NNE
STARLINK-1243 4.3 21:05:45 10° WNW 21:09:03 48° W 21:09:03 48° W
Cosmos 1697 Rocket 2.7 21:08:25 10° NNW 21:14:06 66° ENE 21:14:29 64° E
Cosmos 2369 3.7 21:08:34 10° NNW 21:14:12 65° ENE 21:14:33 63° E
Landsat 7 4.2 21:25:10 54° WSW 21:25:20 55° W 21:30:02 10° NNW
Cosmos 1455 3.8 21:31:25 34° NNW 21:31:25 34° NNW 21:33:51 10° N
SPOT 1/Viking Rocket 3.8 21:30:44 58° WSW 21:31:06 59° W 21:36:17 10° NNW
Cosmos 1763 Rocket 4.2 21:26:15 10° NNW 21:31:09 44° WSW 21:31:31 43° WSW
Cosmos 1656 4.0 21:26:51 10° NW 21:32:23 54° WSW 21:32:50 53° SW
Cosmos 540 Rocket 3.5 21:29:36 10° NNW 21:34:20 74° NW 21:34:20 74° NW
SL-16 R/B 3.8 21:31:19 10° N 21:35:39 22° NE 21:36:11 21° NE
Cosmos 2208 Rocket 4.1 21:31:09 10° NNW 21:36:03 69° W 21:36:03 69° W
Cosmos 1825 4.0 21:38:22 10° NNW 21:40:28 30° NNW 21:40:28 30° NNW
Nadezhda 3 Rocket 4.0 21:41:27 69° SSW 21:42:14 81° W 21:48:33 10° N
Cosmos 2322 Rocket 3.9 21:38:23 10° N 21:42:35 21° NE 21:43:04 20° NE
USA 234 3.1 21:37:43 10° NE 21:44:17 87° NNW 21:50:51 10° SW
Cosmos 1980 Rocket 2.4 21:38:42 10° NNW 21:43:48 60° NNE 21:43:48 60° NNE
Cosmos-2242 4.2 21:45:30 41° NW 21:45:30 41° NW 21:49:00 10° N
Cosmos 1814 Rocket 4.3 21:41:16 10° NNW 21:46:08 64° WNW 21:46:08 64° WNW
Cosmos 1535 Rocket 4.4 21:41:04 10° N 21:46:59 71° ENE 21:46:59 71° ENE
ASTEX 1 4.2 21:50:00 46° NNE 21:50:00 46° NNE 21:53:33 10° N
Meteor 2-3 Rocket 3.9 21:50:15 10° N 21:55:21 71° N 21:55:21 71° N
ATLAS CENTAUR R/B 3.6 21:56:55 10° NW 21:58:21 21° NW 21:58:21 21° NW
Terra 2.9 22:08:45 41° NW 22:08:45 41° NW 22:12:09 10° NNW
Mayak 1.0 22:03:43 10° NNE 22:04:58 19° NNE 22:04:58 19° NNE
SPOT 5 4.4 22:10:53 28° WNW 22:10:53 28° WNW 22:13:29 10° NNW
Cosmos 1934 Rocket 4.1 22:05:39 10° NNW 22:11:27 72° WNW 22:11:27 72° WNW
Cosmos 2082 Rocket 2.9 22:15:55 50° NNE 22:15:55 50° NNE 22:20:05 10° NNE
Cosmos 2278 4.3 22:09:53 10° NNW 22:14:24 53° WNW 22:14:24 53° WNW
Cosmos 1833 Rocket 3.5 22:20:38 46° WNW 22:21:01 47° WNW 22:26:27 10° NNE
Cosmos 1605 Rocket 4.2 22:24:09 10° N 22:29:21 65° NNW 22:29:21 65° NNW
Cosmos 2344 4.3 22:26:10 10° NW 22:35:52 87° SW 22:38:34 62° SSE
CZ-4C R/B 3.2 22:40:32 10° NW 22:46:59 58° W 22:46:59 58° W
SL-16 R/B 3.5 23:14:43 10° NNW 23:18:02 37° NW 23:18:02 37° NW
Cosmos 2360 Rocket 3.4 23:15:36 10° NNW 23:19:17 37° N 23:19:17 37° N
USA 234 4.3 23:20:52 10° NE 23:26:55 42° NNW 23:32:59 10° W
Cosmos 2322 Rocket 3.5 23:21:40 10° NNW 23:24:52 35° NNW 23:24:52 35° NNW
Cosmos 1980 Rocket 4.3 23:23:39 10° NW 23:25:34 17° WNW 23:25:34 17° WNW
Mayak 1.8 23:41:20 10° NW 23:41:32 10° NW 23:41:32 10° NW
Cosmos 2333 Rocket 3.7 23:38:13 10° NNW 23:42:26 31° NE 23:42:26 31° NE
SL-16 R/B 4.4 23:48:42 19° ENE 23:50:12 20° NE 23:54:33 10° N
